TimeEST,TemperatureF,Dew PointF,Humidity,Sea Level PressureIn,VisibilityMPH,Wind Direction,Wind SpeedMPH,Gust SpeedMPH,PrecipitationIn,Events,Conditions,WindDirDegrees,DateUTC
12:58 AM,58.1,46.4,65,30.07,10.0,NNW,9.2,-,N/A,,Clear,330,2013-11-08 05:58:00
1:58 AM,56.8,44.1,62,30.09,10.0,North,10.4,-,N/A,,Clear,350,2013-11-08 06:58:00
2:58 AM,56.3,39.9,54,30.11,10.0,North,12.7,-,N/A,,Clear,360,2013-11-08 07:58:00
3:58 AM,54.5,39.2,56,30.12,10.0,North,11.5,-,N/A,,Clear,360,2013-11-08 08:58:00
4:58 AM,52.9,37.8,56,30.15,10.0,North,12.7,-,N/A,,Mostly Cloudy,10,2013-11-08 09:58:00
5:58 AM,51.4,37.2,58,30.18,10.0,North,11.5,-,N/A,,Mostly Cloudy,10,2013-11-08 10:58:00
6:58 AM,49.6,36.5,61,30.20,10.0,North,8.1,-,N/A,,Clear,10,2013-11-08 11:58:00
7:58 AM,51.6,35.4,54,30.23,10.0,NNE,15.0,24.2,N/A,,Partly Cloudy,30,2013-11-08 12:58:00
8:58 AM,54.1,33.4,46,30.25,10.0,NNE,15.0,26.5,N/A,,Clear,30,2013-11-08 13:58:00
9:58 AM,56.8,34.0,42,30.27,10.0,NNE,11.5,20.7,N/A,,Clear,20,2013-11-08 14:58:00
10:58 AM,59.0,32.9,37,30.27,10.0,NNE,11.5,19.6,N/A,,Clear,20,2013-11-08 15:58:00
11:58 AM,61.5,32.4,33,30.25,10.0,NNE,12.7,-,N/A,,Clear,20,2013-11-08 16:58:00
12:58 PM,63.0,31.3,30,30.23,10.0,North,10.4,-,N/A,,Clear,360,2013-11-08 17:58:00
1:58 PM,64.6,33.1,31,30.22,10.0,North,11.5,-,N/A,,Clear,360,2013-11-08 18:58:00
2:58 PM,64.4,31.6,29,30.21,10.0,North,10.4,-,N/A,,Clear,350,2013-11-08 19:58:00
3:58 PM,63.5,32.7,32,30.21,10.0,North,6.9,-,N/A,,Clear,350,2013-11-08 20:58:00
4:58 PM,61.2,32.7,34,30.22,10.0,NE,5.8,-,N/A,,Clear,40,2013-11-08 21:58:00
5:58 PM,57.7,34.3,41,30.23,10.0,NE,2.3,-,N/A,,Clear,40,2013-11-08 22:58:00
6:58 PM,50.9,37.8,61,30.25,10.0,Calm,Calm,-,N/A,,Clear,0,2013-11-08 23:58:00
7:58 PM,53.2,35.8,52,30.26,10.0,NE,3.5,-,N/A,,Clear,50,2013-11-09 00:58:00
8:58 PM,49.1,37.9,65,30.28,10.0,NNE,1.2,-,N/A,,Clear,20,2013-11-09 01:58:00
9:58 PM,46.0,38.1,74,30.28,10.0,NNE,1.2,-,N/A,,Clear,20,2013-11-09 02:58:00
10:58 PM,49.8,38.1,64,30.28,10.0,NE,4.6,-,N/A,,Clear,40,2013-11-09 03:58:00
11:58 PM,50.4,37.6,62,30.27,10.0,NE,2.3,-,N/A,,Clear,40,2013-11-09 04:58:00